[[{"header":{"parameterUnit":"m.s-1","parameterCategory":1,"la1":30.2991,"la2":30.254,"lo1":-89.0895,"lo2":-89.0444,"dy":0.0017,"dx":0.0017,"nx":28,"ny":28,"refTime":"2024-12-02T09:00:00:Z","depth":0,"parameterNumber":2,"parameterNumberName":"U-component_of_WINDS"},"data":[0,0,0,0,0,0,0,0,0,0,0,0,0,0,0,0,0,0,0,0,0,0,0,0,0,0,0,0,0,0,0,0,0,0,0,0,0,0,0,0,0,0,0,0,0,0,0,0,0,0,0,0,0,0,0,0,0,0,-2.4842,-2.4843,0,-2.4901,-2.4901,-2.4902,-2.4798,-2.4795,-2.4791,-2.4788,-2.4849,-2.4854,-2.4859,0,0,0,0,0,0,0,0,0,0,0,0,0,-2.4641,-2.4645,-2.4842,-2.4843,-2.4844,-2.4901,-2.4901,-2.4902,-2.4799,-2.4795,-2.4791,-2.4787,-2.4848,-2.4853,-2.4859,0,0,0,0,0,0,0,0,0,0,0,0,0,-2.4717,-2.4646,-2.4842,-2.4799,-2.4796,-2.49,-2.4901,-2.4902,-2.48,-2.4795,-2.4789,-2.4785,-2.4846,-2.4853,-2.486,-2.501,0,0,-2.4882,-2.4886,0,0,0,0,0,0,0,0,-2.4713,-2.4724,-2.4805,-2.4802,-2.4799,-2.4837,-2.4853,-2.4939,-2.4801,-2.4798,-2.4788,-2.4782,-2.4849,-2.4856,-2.4879,-2.5013,-2.5015,-2.4883,-2.4887,-2.4891,-2.4893,0,0,0,0,0,0,0,-2.4708,-2.4721,-2.4865,-2.4806,-2.4802,-2.4777,-2.4782,-2.4869,-2.4853,-2.4798,-2.4791,-2.4799,-2.4847,-2.4872,-2.4879,-2.5016,-2.4883,-2.4889,-2.4894,-2.4897,-2.5276,-2.5281,0,0,0,0,0,0,-2.4708,-2.4718,-2.4863,-2.4867,-2.4742,-2.4785,-2.479,-2.483,-2.4851,-2.485,-2.4804,-2.4794,-2.4862,-2.4871,-2.4881,-2.5059,-2.4891,-2.4897,-2.4902,-2.527,-2.5277,-2.5283,0,0,0,0,0,0,-2.4704,-2.4722,-2.4861,-2.479,-2.4806,-2.4794,-2.4839,-2.4834,-2.4859,-2.4855,-2.4852,-2.4832,-2.4858,-2.4871,-2.4979,-2.5059,-2.4901,-2.4907,-2.5264,-2.5273,-2.528,-2.5415,0,0,0,0,0,0,-2.4698,-2.4721,-2.4778,-2.4792,-2.481,-2.4958,-2.4844,-2.4839,-2.4872,-2.486,-2.4881,-2.488,-2.4855,-2.4968,-2.4986,-2.5067,-2.4913,-2.5256,-2.5268,-2.5278,-2.5403,-2.5427,-2.5447,0,0,0,0,0,-2.4691,-2.4813,-2.4781,-2.4799,-2.4881,-2.4963,-2.4973,-2.4942,-2.4878,-2.4936,-2.4933,-2.4879,-2.5047,-2.498,-2.4999,-2.5083,-2.5251,-2.5264,-2.5277,-2.5394,-2.5422,-2.5447,0,0,0,0,0,0,-2.4809,-2.4815,-2.4779,-2.4909,-2.4937,-2.4945,-2.5017,-2.4974,-2.502,-2.5007,-2.4966,-2.4972,-2.5088,-2.5096,-2.5021,-2.5229,-2.5138,-2.5156,-2.5221,-2.5248,-2.527,-2.5267,-2.4919,0,0,0,0,0,-2.485,-2.4916,-2.4917,-2.5032,-2.5047,-2.503,-2.5064,-2.5038,-2.5064,-2.5076,-2.5081,-2.5109,-2.5168,-2.5208,-2.5262,-2.5403,-2.5406,-2.547,-2.5492,-2.551,-2.5526,-2.5602,-2.563,-2.5326,-2.5325,-2.5325,0,0,-2.4936,-2.4947,-2.4991,-2.5056,-2.5074,-2.5144,-2.5041,-2.5118,-2.517,-2.5087,-2.519,-2.5195,-2.5223,-2.5349,-2.5404,-2.5359,-2.5611,-2.5526,-2.5541,-2.5547,-2.5618,-2.5647,-2.5672,-2.5334,-2.5333,-2.5331,0,0,-2.5129,-2.5143,-2.5241,-2.5261,-2.5289,-2.5276,-2.5299,-2.5315,-2.5315,-2.5417,-2.5357,-2.5416,-2.5519,-2.5542,-2.5567,-2.5766,-2.5719,-2.5785,-2.5901,-2.5975,-2.5999,-2.602,-2.6093,-2.612,-2.58,-2.5801,-2.5801,0,-2.5232,-2.5335,-2.5297,-2.5379,-2.5409,-2.5337,-2.5436,-2.5456,-2.5501,-2.5524,-2.5472,-2.5599,-2.5613,-2.5743,-2.5791,-2.5813,-2.5839,-2.5784,-2.5999,-2.602,-2.6039,-2.6108,-2.6135,-2.5809,-2.5808,-2.5807,-2.5806,0,-2.5461,-2.5533,-2.5608,-2.5653,-2.5691,-2.5782,-2.5757,-2.5801,-2.577,-2.5763,-2.5868,-2.5881,-2.5937,-2.5965,-2.5936,-2.6091,-2.6062,-2.6005,-2.5914,-2.6077,-2.6141,-2.6167,-2.582,-2.5817,-2.5815,-2.5813,0,0,-2.5732,-2.5754,-2.5782,-2.5802,-2.5827,-2.5881,-2.5968,-2.6022,-2.6061,-2.6093,-2.6165,-2.6252,-2.6199,-2.6228,-2.62,-2.6265,-2.6424,-2.62,-2.62,-2.6243,-2.6597,-2.6642,-2.6673,-2.6391,-2.6396,-2.64,-2.6595,0,-2.5925,-2.6074,-2.6042,-2.6189,-2.6255,-2.6186,-2.6261,-2.6285,-2.628,-2.6335,-2.6329,-2.6393,-2.6317,-2.6334,-2.6395,-2.6392,-2.6495,-2.6377,-2.6459,-2.6462,-2.6457,-2.6706,-2.6753,-2.6937,-2.662,-2.6624,-2.6627,0,-2.617,-2.6212,-2.6366,-2.638,-2.6406,-2.6475,-2.6522,-2.6575,-2.66,-2.6591,-2.6623,-2.6583,-2.6668,-2.6573,-2.6691,-2.6612,-2.6643,-2.6646,-2.6652,-2.6661,-2.6557,-2.6723,-2.6995,-2.7024,-2.6666,-2.6663,-2.666,0,-2.6355,-2.6449,-2.6554,-2.6572,-2.6591,-2.6641,-2.6651,-2.667,-2.6704,-2.6745,-2.6767,-2.6817,-2.6845,-2.6884,-2.6859,-2.6792,-2.6981,-2.6884,-2.6978,-2.6979,-2.7023,-2.7021,-2.7306,-2.7039,-2.7039,-2.7038,-2.7038,0,-2.6575,-2.6673,-2.6637,-2.6702,-2.6808,-2.6769,-2.6876,-2.6878,-2.6896,-2.6959,-2.6902,-2.6963,-2.6923,-2.6981,-2.6961,-2.7062,-2.7075,-2.7071,-2.7065,-2.7078,-2.7079,-2.7099,-2.7087,-2.7046,-2.7044,-2.7043,-2.7041,0,-2.6801,-2.6781,-2.689,-2.6898,-2.6903,-2.6981,-2.6988,-2.7048,-2.7037,-2.7119,-2.7136,-2.712,-2.7185,-2.7162,-2.7231,-2.7217,-2.7347,-2.7323,-2.7339,-2.7334,-2.7429,-2.7422,-2.774,-2.778,-2.7486,-2.7488,-2.7491,0,-2.6944,-2.7017,-2.7033,-2.7071,-2.7086,-2.7148,-2.7183,-2.7147,-2.7185,-2.7218,-2.7275,-2.7334,-2.738,-2.7486,-2.7481,-2.7534,-2.7512,-2.762,-2.752,-2.753,-2.7516,-2.7513,-2.752,-2.7641,-2.7644,-2.7647,-2.7649,0,-2.7201,-2.7187,-2.7239,-2.7288,-2.7331,-2.7368,-2.74,-2.7434,-2.74,-2.7446,-2.7511,-2.7547,-2.7617,-2.7677,-2.7724,-2.7734,-2.7687,-2.768,-2.7705,-2.772,-2.7727,-2.7726,-2.7396,-2.7674,-2.7671,-2.767,-2.7668,-2.7667,-2.7391,-2.7453,-2.7474,-2.7534,-2.7553,-2.7584,-2.7641,-2.7637,-2.7691,-2.7746,-2.772,-2.7797,-2.7818,-2.7876,-2.7893,-2.7951,-2.791,-2.7945,-2.7955,-2.7965,-2.7978,-2.7716,-2.7959,-2.7959,-2.7958,-2.7957,-2.7957,0,-2.7646,-2.7656,-2.7711,-2.7757,-2.7804,-2.7754,-2.7786,-2.7829,-2.7897,-2.7921,-2.7967,-2.8042,-2.81,-2.8098,-2.8152,-2.8199,-2.8179,-2.8214,-2.8212,-2.8215,-2.8011,-2.7985,-2.823,-2.823,-2.823,-2.823,-2.823,-2.823,-2.7785,-2.7887,-2.7876,-2.7987,-2.7995,-2.807,-2.8092,-2.812,-2.8139,-2.8226,-2.8274,-2.8272,-2.8286,-2.834,-2.839,-2.8388,-2.8411,-2.8456,-2.8446,-2.8256,-2.8229,-2.8204,-2.8179,-2.8461,-2.8461,-2.8645,-2.8647,-2.8648]},{"header":{"parameterUnit":"m.s-1","parameterCategory":1,"la1":30.2991,"la2":30.254,"lo1":-89.0895,"lo2":-89.0444,"dy":0.0017,"dx":0.0017,"nx":28,"ny":28,"refTime":"2024-12-02T09:00:00:Z","depth":0,"parameterNumber":3,"parameterNumberName":"V-component_of_WINDS"},"data":[0,0,0,0,0,0,0,0,0,0,0,0,0,0,0,0,0,0,0,0,0,0,0,0,0,0,0,0,0,0,0,0,0,0,0,0,0,0,0,0,0,0,0,0,0,0,0,0,0,0,0,0,0,0,0,0,0,0,-5.4348,-5.4349,0,-5.4448,-5.4449,-5.445,-5.4357,-5.4353,-5.435,-5.4346,-5.4444,-5.445,-5.4456,0,0,0,0,0,0,0,0,0,0,0,0,0,-5.4073,-5.4078,-5.4348,-5.4349,-5.4351,-5.4448,-5.4449,-5.445,-5.4358,-5.4353,-5.4349,-5.4344,-5.4442,-5.4449,-5.4456,0,0,0,0,0,0,0,0,0,0,0,0,0,-5.4184,-5.408,-5.4348,-5.4316,-5.4314,-5.4447,-5.4449,-5.4451,-5.4359,-5.4353,-5.4347,-5.4342,-5.4439,-5.4448,-5.4457,-5.4625,0,0,-5.4485,-5.4489,0,0,0,0,0,0,0,0,-5.4178,-5.4194,-5.432,-5.4319,-5.4317,-5.4384,-5.4387,-5.4509,-5.436,-5.4342,-5.4346,-5.434,-5.4428,-5.4438,-5.4469,-5.4629,-5.4634,-5.4486,-5.4491,-5.4495,-5.4498,0,0,0,0,0,0,0,-5.417,-5.419,-5.4387,-5.4322,-5.432,-5.4295,-5.4305,-5.441,-5.4415,-5.4343,-5.4336,-5.435,-5.4426,-5.446,-5.447,-5.4635,-5.4485,-5.4494,-5.4499,-5.4503,-5.4937,-5.4943,0,0,0,0,0,0,-5.4167,-5.4184,-5.4384,-5.439,-5.4232,-5.4305,-5.4316,-5.4368,-5.4414,-5.4415,-5.4354,-5.4345,-5.4447,-5.446,-5.4473,-5.4672,-5.4495,-5.4504,-5.4509,-5.4931,-5.4938,-5.4945,0,0,0,0,0,0,-5.4161,-5.4185,-5.438,-5.4285,-5.4308,-5.4316,-5.4375,-5.4373,-5.4407,-5.4422,-5.4422,-5.4388,-5.4443,-5.446,-5.4588,-5.4674,-5.4508,-5.4516,-5.4924,-5.4933,-5.4942,-5.5072,0,0,0,0,0,0,-5.4154,-5.4184,-5.4249,-5.4288,-5.4314,-5.4495,-5.4381,-5.4379,-5.4423,-5.4412,-5.4454,-5.4456,-5.444,-5.4575,-5.4597,-5.4684,-5.4523,-5.4916,-5.4928,-5.4939,-5.506,-5.5084,-5.5105,0,0,0,0,0,-5.4144,-5.4281,-5.4253,-5.4278,-5.4396,-5.45,-5.4515,-5.4496,-5.4431,-5.4495,-5.4505,-5.4454,-5.4661,-5.4589,-5.4613,-5.4704,-5.491,-5.4925,-5.4938,-5.505,-5.5079,-5.5105,0,0,0,0,0,0,-5.4252,-5.4286,-5.4255,-5.4409,-5.4453,-5.4485,-5.4566,-5.4528,-5.459,-5.4577,-5.4549,-5.4559,-5.4694,-5.4711,-5.463,-5.4868,-5.4775,-5.4794,-5.4852,-5.488,-5.4902,-5.4896,-5.4531,0,0,0,0,0,-5.4294,-5.4377,-5.4402,-5.4535,-5.4559,-5.4559,-5.4604,-5.4585,-5.4629,-5.4646,-5.4665,-5.4708,-5.4782,-5.4832,-5.4901,-5.5061,-5.5069,-5.5136,-5.5158,-5.5177,-5.5194,-5.5279,-5.5308,-5.499,-5.499,-5.4989,0,0,-5.438,-5.4409,-5.4464,-5.4558,-5.4589,-5.4675,-5.4575,-5.467,-5.4733,-5.466,-5.4782,-5.4797,-5.4843,-5.4988,-5.5052,-5.5006,-5.5283,-5.5194,-5.5209,-5.5216,-5.5296,-5.5326,-5.5353,-5.4999,-5.4997,-5.4996,0,0,-5.4583,-5.4614,-5.4728,-5.4762,-5.4812,-5.481,-5.4838,-5.4876,-5.4884,-5.5006,-5.4952,-5.5026,-5.5155,-5.5189,-5.5224,-5.5438,-5.5394,-5.5462,-5.558,-5.5663,-5.5688,-5.571,-5.5786,-5.5814,-5.5478,-5.5479,-5.5479,0,-5.4684,-5.4813,-5.4791,-5.4891,-5.4933,-5.4872,-5.4986,-5.5019,-5.5089,-5.5118,-5.5066,-5.5226,-5.5253,-5.5404,-5.5457,-5.5487,-5.5516,-5.5457,-5.5687,-5.5709,-5.5729,-5.5801,-5.583,-5.5487,-5.5486,-5.5485,-5.5484,0,-5.4935,-5.5025,-5.5111,-5.5181,-5.5233,-5.5339,-5.5331,-5.5386,-5.5363,-5.5366,-5.5491,-5.552,-5.5594,-5.5628,-5.5606,-5.5776,-5.5746,-5.5691,-5.5597,-5.5768,-5.5835,-5.5863,-5.5498,-5.5495,-5.5493,-5.5491,0,0,-5.5209,-5.5265,-5.5297,-5.5328,-5.5378,-5.5446,-5.5548,-5.5622,-5.5669,-5.5718,-5.5803,-5.5913,-5.5862,-5.5901,-5.5882,-5.5955,-5.6122,-5.589,-5.5891,-5.5932,-5.6311,-5.6353,-5.6385,-5.6093,-5.6098,-5.6102,-5.6307,0,-5.5413,-5.5594,-5.5576,-5.5747,-5.5829,-5.5772,-5.5861,-5.59,-5.5906,-5.5975,-5.598,-5.6059,-5.5986,-5.6009,-5.6079,-5.6087,-5.6198,-5.6072,-5.617,-5.6174,-5.6161,-5.642,-5.6465,-5.6657,-5.6333,-5.6338,-5.6341,0,-5.5676,-5.5736,-5.5916,-5.5952,-5.5986,-5.6067,-5.6132,-5.6199,-5.6242,-5.6241,-5.6285,-5.6252,-5.6353,-5.6258,-5.6396,-5.6311,-5.6349,-5.6359,-5.6366,-5.6375,-5.6268,-5.6436,-5.6718,-5.6747,-5.6382,-5.6379,-5.6376,0,-5.5858,-5.5983,-5.6107,-5.6134,-5.618,-5.6238,-5.626,-5.6297,-5.6342,-5.6398,-5.6427,-5.6494,-5.6531,-5.6583,-5.6569,-5.65,-5.671,-5.6613,-5.6711,-5.6711,-5.6758,-5.6755,-5.7051,-5.6783,-5.6783,-5.6782,-5.6781,0,-5.6088,-5.62,-5.6189,-5.6265,-5.6388,-5.6365,-5.6487,-5.6501,-5.6534,-5.6611,-5.6564,-5.6636,-5.6613,-5.6684,-5.6673,-5.6789,-5.6805,-5.6806,-5.6802,-5.6811,-5.6811,-5.6836,-5.6822,-5.679,-5.6788,-5.6786,-5.6785,0,-5.6312,-5.6309,-5.644,-5.6473,-5.6483,-5.6573,-5.66,-5.667,-5.6672,-5.6769,-5.679,-5.6793,-5.6873,-5.6864,-5.6954,-5.6946,-5.709,-5.707,-5.7077,-5.7072,-5.7171,-5.7162,-5.7493,-5.7534,-5.724,-5.7243,-5.7245,0,-5.6459,-5.6544,-5.6586,-5.6635,-5.6661,-5.6739,-5.6785,-5.6765,-5.6815,-5.6869,-5.6933,-5.7009,-5.707,-5.72,-5.7209,-5.7277,-5.7258,-5.7369,-5.7268,-5.7274,-5.7259,-5.7255,-5.7263,-5.7389,-5.7393,-5.7395,-5.7397,0,-5.6721,-5.6715,-5.6784,-5.6853,-5.6909,-5.6962,-5.701,-5.7051,-5.7036,-5.7093,-5.7176,-5.7223,-5.7315,-5.7391,-5.7455,-5.7474,-5.7434,-5.7429,-5.7455,-5.7465,-5.7466,-5.7467,-5.7132,-5.7422,-5.7419,-5.7418,-5.7416,-5.7415,-5.6911,-5.6983,-5.7024,-5.7102,-5.7136,-5.7182,-5.725,-5.726,-5.7329,-5.7404,-5.7387,-5.748,-5.7518,-5.76,-5.7626,-5.7697,-5.7657,-5.7695,-5.7704,-5.7714,-5.7726,-5.7455,-5.7709,-5.7708,-5.7707,-5.7707,-5.7706,0,-5.717,-5.7193,-5.7265,-5.7334,-5.7395,-5.7352,-5.7402,-5.7456,-5.7538,-5.7578,-5.7639,-5.7733,-5.7806,-5.7821,-5.789,-5.7944,-5.7927,-5.7963,-5.7959,-5.7964,-5.7758,-5.7729,-5.7976,-5.7976,-5.7975,-5.7975,-5.7975,-5.7975,-5.7312,-5.7432,-5.7431,-5.7567,-5.7589,-5.7681,-5.7713,-5.7754,-5.7786,-5.7894,-5.7955,-5.7964,-5.7994,-5.8065,-5.8129,-5.8131,-5.8159,-5.8203,-5.8197,-5.8005,-5.7978,-5.7953,-5.7925,-5.8209,-5.8209,-5.8397,-5.8399,-5.84]}]]